Tracking 22454 objects as of 5-Mar-2021
HD Live streaming from Space Station
objects crossing your sky now

COSMOS 2491 DEB

Track COSMOS 2491 DEB now!
10-day predictions


NORAD ID: 47111
Int'l Code: 2013-076AG
Perigee: 1,381.3 km
Apogee: 1,582.2 km
Inclination: 82.5 °
Period: 115.4 minutes
Semi major axis: 7852 km
RCS: Unknown
Launch date: December 25, 2013
Source: Commonwealth of Independent States (former USSR) (CIS)
Launch site: PLESETSK MISSILE AND SPACE COMPLEX (PKMTR)

Note: This is SATELLITE DEBRIS
aabbcc
Your satellite tracking list
Your tracking list is empty




NASA's NSSDC Master Catalog

Two Line Element Set (TLE):
1 47111U 13076AG  21062.37103100  .00000761  00000-0  49576-2 0  9994
2 47111  82.4587 290.4196 0127923 272.2000  86.4440 12.47593493 49273
Source of the keplerian elements: AFSPC